TimeCST,TemperatureF,Dew PointF,Humidity,Sea Level PressureIn,VisibilityMPH,Wind Direction,Wind SpeedMPH,Gust SpeedMPH,PrecipitationIn,Events,Conditions,WindDirDegrees,DateUTC
12:56 AM,73.0,69.1,87,29.81,8.0,SSE,16.1,-,N/A,,Mostly Cloudy,160,2012-12-19 06:56:00
1:56 AM,73.0,69.1,87,29.79,8.0,SSE,17.3,-,N/A,,Mostly Cloudy,160,2012-12-19 07:56:00
2:56 AM,73.0,69.1,87,29.78,8.0,SSE,13.8,-,N/A,,Mostly Cloudy,160,2012-12-19 08:56:00
3:14 AM,73.4,69.8,88,29.78,8.0,SSE,12.7,-,N/A,,Overcast,160,2012-12-19 09:14:00
3:56 AM,73.0,70.0,90,29.77,8.0,SSE,11.5,-,N/A,,Overcast,160,2012-12-19 09:56:00
4:14 AM,73.4,69.8,88,29.78,8.0,SSE,11.5,-,N/A,,Overcast,160,2012-12-19 10:14:00
4:56 AM,73.9,70.0,87,29.76,8.0,SSE,12.7,-,N/A,,Overcast,150,2012-12-19 10:56:00
5:56 AM,73.0,69.1,87,29.75,7.0,SSE,13.8,-,N/A,,Mostly Cloudy,150,2012-12-19 11:56:00
6:04 AM,73.4,69.8,88,29.76,6.0,SSE,13.8,-,N/A,,Scattered Clouds,150,2012-12-19 12:04:00
6:31 AM,73.4,69.8,88,29.77,7.0,SSE,15.0,-,N/A,,Mostly Cloudy,160,2012-12-19 12:31:00
6:56 AM,73.9,70.0,87,29.76,7.0,SSE,17.3,23.0,N/A,,Overcast,150,2012-12-19 12:56:00
7:05 AM,73.4,69.8,88,29.77,7.0,SSE,18.4,-,N/A,,Overcast,150,2012-12-19 13:05:00
7:56 AM,73.9,70.0,87,29.76,6.0,SSE,16.1,24.2,N/A,,Overcast,160,2012-12-19 13:56:00
8:56 AM,75.9,70.0,82,29.78,7.0,SSE,16.1,-,N/A,,Overcast,160,2012-12-19 14:56:00
9:56 AM,80.1,69.1,69,29.78,8.0,South,21.9,31.1,N/A,,Overcast,170,2012-12-19 15:56:00
10:26 AM,80.6,69.8,70,29.80,8.0,South,23.0,28.8,N/A,,Overcast,170,2012-12-19 16:26:00
10:56 AM,80.1,68.0,67,29.78,8.0,SSE,25.3,34.5,N/A,,Overcast,160,2012-12-19 16:56:00
11:56 AM,82.0,66.9,60,29.75,8.0,South,21.9,33.4,N/A,,Overcast,180,2012-12-19 17:56:00
12:56 PM,86.0,66.9,53,29.70,9.0,South,21.9,31.1,N/A,,Overcast,180,2012-12-19 18:56:00
1:56 PM,88.5,66.9,49,29.67,8.0,South,20.7,29.9,N/A,,Overcast,180,2012-12-19 19:56:00
2:56 PM,88.3,66.9,49,29.66,8.0,South,19.6,27.6,N/A,,Mostly Cloudy,170,2012-12-19 20:56:00
3:56 PM,86.9,66.9,51,29.66,8.0,South,20.7,-,N/A,,Mostly Cloudy,180,2012-12-19 21:56:00
4:56 PM,84.0,66.9,56,29.66,9.0,South,15.0,-,N/A,,Mostly Cloudy,170,2012-12-19 22:56:00
5:56 PM,81.0,66.9,62,29.67,9.0,SSE,15.0,-,N/A,,Mostly Cloudy,160,2012-12-19 23:56:00
6:56 PM,79.0,66.9,66,29.69,9.0,SSE,13.8,-,N/A,,Mostly Cloudy,160,2012-12-20 00:56:00
7:56 PM,77.0,68.0,74,29.71,9.0,South,16.1,-,N/A,,Mostly Cloudy,170,2012-12-20 01:56:00
8:56 PM,73.9,68.0,82,29.73,8.0,South,11.5,-,N/A,,Mostly Cloudy,170,2012-12-20 02:56:00
9:56 PM,72.0,68.0,87,29.75,8.0,South,6.9,-,N/A,,Mostly Cloudy,170,2012-12-20 03:56:00
10:56 PM,71.1,68.0,90,29.77,7.0,South,8.1,-,N/A,,Scattered Clouds,180,2012-12-20 04:56:00
11:39 PM,69.8,68.0,94,29.78,6.0,South,8.1,-,N/A,,Mostly Cloudy,170,2012-12-20 05:39:00
11:56 PM,71.1,69.1,93,29.78,6.0,South,6.9,-,N/A,,Overcast,180,2012-12-20 05:56:00